TimeCDT,TemperatureF,Dew PointF,Humidity,Sea Level PressureIn,VisibilityMPH,Wind Direction,Wind SpeedMPH,Gust SpeedMPH,PrecipitationIn,Events,Conditions,WindDirDegrees,DateUTC
12:53 AM,55.0,39.0,55,30.12,10.0,NE,10.4,17.3,N/A,,Clear,50,2013-05-23 05:53:00
1:53 AM,53.1,37.0,55,30.14,10.0,NE,6.9,-,N/A,,Clear,40,2013-05-23 06:53:00
2:53 AM,51.1,37.0,59,30.17,10.0,NE,8.1,-,N/A,,Clear,40,2013-05-23 07:53:00
3:53 AM,48.9,36.0,61,30.19,10.0,NNE,6.9,-,N/A,,Clear,30,2013-05-23 08:53:00
4:53 AM,46.9,36.0,66,30.22,10.0,NNE,5.8,-,N/A,,Clear,30,2013-05-23 09:53:00
5:53 AM,45.0,35.1,68,30.25,10.0,NNE,5.8,-,N/A,,Clear,30,2013-05-23 10:53:00
6:53 AM,46.9,34.0,61,30.27,10.0,Variable,4.6,-,N/A,,Clear,0,2013-05-23 11:53:00
7:53 AM,48.9,34.0,56,30.29,10.0,NE,8.1,-,N/A,,Clear,50,2013-05-23 12:53:00
8:53 AM,51.1,35.1,54,30.30,10.0,NNE,5.8,-,N/A,,Clear,20,2013-05-23 13:53:00
9:53 AM,52.0,30.9,45,30.32,10.0,NNE,10.4,16.1,N/A,,Clear,20,2013-05-23 14:53:00
10:53 AM,54.0,28.9,38,30.32,10.0,ENE,4.6,-,N/A,,Clear,60,2013-05-23 15:53:00
11:53 AM,55.9,28.0,34,30.32,10.0,Variable,5.8,-,N/A,,Clear,0,2013-05-23 16:53:00
12:53 PM,59.0,25.0,27,30.32,10.0,Variable,5.8,-,N/A,,Clear,0,2013-05-23 17:53:00
1:53 PM,61.0,19.9,21,30.32,10.0,East,8.1,18.4,N/A,,Clear,90,2013-05-23 18:53:00
2:53 PM,61.0,21.9,22,30.32,10.0,East,9.2,-,N/A,,Clear,90,2013-05-23 19:53:00
3:53 PM,63.0,21.9,21,30.31,10.0,NE,8.1,-,N/A,,Clear,50,2013-05-23 20:53:00
4:53 PM,63.0,21.9,21,30.30,10.0,ENE,6.9,-,N/A,,Clear,70,2013-05-23 21:53:00
5:53 PM,63.0,19.9,19,30.30,10.0,East,9.2,-,N/A,,Clear,90,2013-05-23 22:53:00
6:53 PM,62.1,18.0,18,30.30,10.0,East,9.2,-,N/A,,Clear,80,2013-05-23 23:53:00
7:53 PM,62.1,19.9,20,30.29,10.0,East,4.6,-,N/A,,Clear,80,2013-05-24 00:53:00
8:53 PM,57.9,25.0,28,30.29,10.0,East,3.5,-,N/A,,Clear,100,2013-05-24 01:53:00
9:53 PM,54.0,28.0,37,30.31,10.0,East,4.6,-,N/A,,Clear,80,2013-05-24 02:53:00
10:53 PM,46.0,30.0,54,30.33,10.0,Calm,Calm,-,N/A,,Clear,0,2013-05-24 03:53:00
11:53 PM,43.0,30.9,62,30.34,10.0,Calm,Calm,-,N/A,,Clear,0,2013-05-24 04:53:00